JY1SAT (JO-97)

Last updated on Sat Jul 05 2025 00:03:06 GMT+0000 (Coordinated Universal Time)

1 43803U 18099AX 25185.58281758 .00010062 00000+0 45237-3 0 9992 2 43803 97.4650 244.4411 0008632 65.8356 294.3781 15.21290718360574
UTC large
Height (km)
Speed (km/s)
/
Latitude / Longitude
Inclination (degrees)
Orbital Period (minutes)
Azimuth
Elevation
Range (km)
Doppler Factor

Next 0 passes for location: London (51.5072 / 0.1276)

Sorry there are no passes over London.